Simultaneous Nadir Overpasses (SNOs) Predictions

Prediction of SNOs over PacNW region [( 10.00, 139.50) to ( 22.70, 165.60)] between AQUA and NPP Satellites:

Table of predicted SNOs over PacNW region for the next 30.0 days since TLE Epoch: 7/7/2017
Index Date (AQUA) Time (AQUA) AQUA Lat,Lon Date (NPP) Time (NPP) NPP Lat,Lon Distance(km) Time Diff (sec)
1 07/11/2017 15:09:38 22.61, 159.85 07/11/2017 15:10:45 23.16, 157.36 262.94 67
2 07/14/2017 03:31:29 22.69, 147.53 07/14/2017 03:27:59 26.15, 145.00 462.02 210
3 07/19/2017 15:59:03 22.63, 147.50 07/19/2017 16:01:26 23.25, 144.71 293.95 143
4 07/27/2017 15:09:35 22.59, 159.85 07/27/2017 15:10:40 23.16, 157.39 260.30 65
5 07/30/2017 03:31:24 22.67, 147.54 07/30/2017 03:27:55 26.23, 145.01 471.74 209




NCC Satellite Simultaneous Nadir Overpasses (SNOs) Prediction Service
